M0OAB-1 Weather Reports


time (UTC)temp
C
wind
direction
speed
KPH
gust
KPH
rain 1hr
cm
rain 24hr
cm
rain mn
cm
humidity
%
barometer
mb
20260506014203 9 344 8.0 12.9 0.00 0.00 0.00 74 998.7
20260506013604 9 327 8.0 12.9 0.00 0.00 0.00 74 998.8
20260506013204 9 311 8.0 12.9 0.00 0.00 0.00 75 998.5
20260506012803 9 312 8.0 12.9 0.00 0.00 0.00 74 998.8
20260506012603 9 313 9.7 12.9 0.00 0.00 0.00 74 998.7
20260506012204 9 341 8.0 12.9 0.00 0.00 0.00 74 998.7
20260506011804 9 346 9.7 12.9 0.00 0.00 0.00 75 998.6
20260506011603 9 348 11.3 17.7 0.00 0.00 0.00 75 998.7
20260506011403 9 344 11.3 17.7 0.00 0.00 0.00 75 998.8
20260506011204 9 341 12.9 17.7 0.00 0.00 0.00 75 998.7
20260506010803 9 337 11.3 17.7 0.00 0.00 0.00 75 998.7
20260506010403 10 315 9.7 12.9 0.00 0.00 0.00 76 998.8
20260506010203 10 322 11.3 16.1 0.00 0.00 0.00 76 998.8
20260506010004 10 315 12.9 16.1 0.00 0.00 0.00 76 998.7
20260506005803 10 317 12.9 16.1 0.00 0.00 0.00 76 998.8
20260506005603 10 323 11.3 16.1 0.00 0.00 0.00 76 998.7
20260506005404 10 328 11.3 16.1 0.00 0.00 0.00 77 998.8
20260506005004 10 312 9.7 12.9 0.00 0.00 0.00 77 998.8
20260506004604 10 325 9.7 14.5 0.00 0.00 0.00 78 998.6
20260506004404 10 333 9.7 14.5 0.00 0.00 0.00 78 998.8
20260506004003 10 346 11.3 14.5 0.00 0.00 0.00 78 998.7
20260506003604 10 340 9.7 11.3 0.00 0.00 0.00 78 998.8
20260506003403 10 342 9.7 11.3 0.00 0.00 0.00 78 998.8
20260506003203 10 340 8.0 11.3 0.00 0.00 0.00 78 998.8
20260506003003 10 339 8.0 11.3 0.00 0.00 0.00 78 998.7
20260506002804 10 338 8.0 12.9 0.00 0.00 0.00 78 998.8
20260506002603 10 349 8.0 12.9 0.00 0.00 0.00 78 998.8
20260506002403 10 340 9.7 12.9 0.00 0.00 0.00 78 998.8
20260506002204 10 333 8.0 12.9 0.00 0.00 0.00 78 998.8
20260506002004 10 330 8.0 12.9 0.00 0.00 0.00 77 998.9
20260506001803 10 329 8.0 12.9 0.00 0.00 0.00 77 998.9
20260506001603 10 338 6.4 12.9 0.00 0.00 0.00 77 998.9
20260506001403 10 341 6.4 11.3 0.00 0.00 0.00 77 998.9
20260506001004 10 342 8.0 12.9 0.00 0.00 0.00 77 998.8
20260506000804 10 345 8.0 12.9 0.00 0.00 0.00 77 998.8
20260506000603 10 339 9.7 12.9 0.00 0.00 0.00 76 998.9
20260506000403 10 342 9.7 12.9 0.00 0.00 0.00 76 999.0
20260506000205 10 341 9.7 12.9 0.00 0.00 0.00 76 999.0
20260506000004 10 340 9.7 12.9 0.00 0.00 0.00 76 999.1
20260505235803 10 323 8.0 12.9 0.00 0.00 0.00 76 998.9
20260505235403 10 304 6.4 11.3 0.00 0.00 0.00 76 999.0
20260505235204 10 294 4.8 9.7 0.00 0.00 0.00 75 998.9
20260505235004 10 303 6.4 11.3 0.00 0.00 0.00 75 998.8
20260505234803 10 308 6.4 11.3 0.00 0.00 0.00 75 998.8
20260505234603 10 318 8.0 12.9 0.00 0.00 0.00 75 998.8
20260505234404 10 322 8.0 12.9 0.00 0.00 0.00 75 998.9
20260505234204 10 322 8.0 12.9 0.00 0.00 0.00 75 998.9
20260505234003 10 339 8.0 12.9 0.00 0.00 0.00 75 998.9
20260505233603 10 12 8.0 17.7 0.00 0.00 0.00 75 999.0
20260505233404 10 18 8.0 17.7 0.00 0.00 0.00 75 999.0
20260505233203 10 13 8.0 17.7 0.00 0.00 0.00 75 998.9
20260505233003 10 359 9.7 17.7 0.00 0.00 0.00 75 999.1
20260505232804 10 346 9.7 17.7 0.00 0.00 0.00 74 999.0
20260505232604 10 328 8.0 12.9 0.00 0.00 0.00 74 999.0
20260505232203 10 322 6.4 12.9 0.00 0.00 0.00 75 999.1
20260505232004 10 325 6.4 12.9 0.00 0.00 0.00 75 999.0
20260505231804 10 333 6.4 12.9 0.00 0.00 0.00 75 999.0
20260505231403 10 345 6.4 9.7 0.00 0.00 0.00 75 998.9
20260505231203 10 341 6.4 9.7 0.00 0.00 0.00 75 999.1
20260505230804 10 352 4.8 9.7 0.00 0.00 0.00 75 999.2
20260505230604 10 340 4.8 9.7 0.00 0.00 0.00 75 999.1
20260505230403 10 350 4.8 6.4 0.00 0.00 0.00 74 999.1
20260505230203 10 2 3.2 6.4 0.00 0.00 0.00 74 999.2
20260505230005 10 331 3.2 6.4 0.00 0.00 0.00 74 999.3
20260505225803 10 340 3.2 4.8 0.00 0.00 0.00 74 999.2
20260505225603 10 297 3.2 3.2 0.00 0.00 0.00 74 999.3
20260505225404 10 307 3.2 4.8 0.00 0.00 0.00 74 999.3
20260505225003 10 25 3.2 6.4 0.00 0.00 0.00 74 999.3
20260505224803 10 36 4.8 6.4 0.00 0.00 0.00 74 999.2
20260505224404 10 54 4.8 6.4 0.00 0.00 0.00 74 999.2
20260505224204 10 96 4.8 6.4 0.00 0.00 0.00 74 999.4
20260505224004 10 144 4.8 6.4 0.00 0.00 0.00 74 999.1
20260505223803 10 117 4.8 6.4 0.00 0.00 0.00 74 999.4
20260505223603 10 143 4.8 8.0 0.00 0.00 0.00 74 999.4
20260505223404 10 155 4.8 8.0 0.00 0.00 0.00 74 999.2
20260505222803 10 343 4.8 8.0 0.00 0.00 0.00 74 999.3
20260505222603 10 333 4.8 8.0 0.00 0.00 0.00 74 999.5
20260505222404 10 335 6.4 17.7 0.00 0.00 0.00 74 999.5
20260505222203 10 313 6.4 17.7 0.00 0.00 0.00 74 999.5
20260505222003 10 303 6.4 17.7 0.00 0.00 0.00 74 999.4
20260505221803 10 307 6.4 17.7 0.00 0.00 0.00 74 999.4
20260505221604 10 307 6.4 17.7 0.00 0.00 0.00 74 999.5
20260505221403 10 320 6.4 17.7 0.00 0.00 0.00 74 999.6
20260505221203 10 336 4.8 8.0 0.00 0.00 0.00 74 999.4
20260505221004 10 333 6.4 11.3 0.00 0.00 0.00 74 999.3
20260505220804 11 339 6.4 11.3 0.00 0.00 0.00 74 999.6
20260505220603 11 346 6.4 11.3 0.00 0.00 0.00 74 999.4
20260505220403 11 356 6.4 11.3 0.00 0.00 0.00 73 999.5
20260505220204 11 15 6.4 11.3 0.00 0.00 0.00 73 999.3
20260505220003 11 16 4.8 11.3 0.00 0.00 0.00 73 999.4
20260505215803 11 9 4.8 8.0 0.00 0.00 0.00 73 999.4
20260505215604 11 345 4.8 8.0 0.00 0.00 0.00 73 999.3
20260505215404 11 355 4.8 8.0 0.00 0.00 0.00 73 999.2
20260505215003 11 8 6.4 9.7 0.00 0.00 0.00 73 999.3
20260505214803 11 351 6.4 9.7 0.00 0.00 0.00 73 999.3
20260505214604 11 10 6.4 9.7 0.00 0.00 0.00 73 999.3
20260505214404 11 2 4.8 9.7 0.00 0.00 0.00 73 999.3
20260505214203 11 329 6.4 11.3 0.00 0.00 0.00 73 999.1
20260505214003 11 324 6.4 11.3 0.00 0.00 0.00 74 999.2
20260505213604 11 280 6.4 11.3 0.00 0.00 0.00 74 999.2
20260505213404 11 301 8.0 14.5 0.00 0.00 0.00 75 999.2
20260505213203 11 327 6.4 14.5 0.00 0.00 0.00 75 999.2
20260505213004 11 7 8.0 14.5 0.00 0.00 0.00 76 999.2
20260505212804 11 3 8.0 14.5 0.00 0.00 0.00 77 999.2
20260505212603 11 2 6.4 14.5 0.00 0.00 0.00 78 999.1
20260505212405 11 16 6.4 8.0 0.00 0.00 0.00 78 999.1
20260505212005 11 11 4.8 6.4 0.00 0.00 0.00 79 999.1
20260505211805 11 30 3.2 6.4 0.00 0.00 0.00 79 999.2
20260505211605 11 33 3.2 6.4 0.00 0.00 0.00 79 999.2
20260505211204 11 44 1.6 4.8 0.00 0.00 0.00 79 999.0
20260505211005 11 341 1.6 4.8 0.00 0.00 0.00 80 999.0
20260505210805 11 284 1.6 4.8 0.00 0.00 0.00 80 999.2
20260505210605 11 264 1.6 4.8 0.00 0.00 0.00 80 999.0
20260505210405 11 145 1.6 3.2 0.00 0.00 0.00 80 998.9
20260505210205 11 160 1.6 3.2 0.00 0.00 0.00 80 999.0
20260505210005 11 149 1.6 3.2 0.00 0.00 0.00 80 999.0
20260505205805 11 118 3.2 3.2 0.00 0.00 0.00 80 998.8
20260505205605 11 108 3.2 3.2 0.00 0.00 0.00 80 998.9
20260505205205 11 105 3.2 3.2 0.00 0.00 0.00 80 999.0
20260505205006 11 59 1.6 3.2 0.00 0.00 0.00 80 998.9
20260505204805 11 327 1.6 3.2 0.00 0.00 0.00 80 998.8
20260505204605 11 328 1.6 3.2 0.00 0.00 0.00 80 999.0
20260505204405 11 248 1.6 3.2 0.00 0.00 0.00 80 999.0
20260505204005 11 318 1.6 3.2 0.00 0.00 0.00 80 998.9
20260505203805 11 85 3.2 3.2 0.00 0.00 0.00 80 998.9
20260505203605 11 28 3.2 3.2 0.00 0.00 0.00 80 998.9
20260505203205 11 53 3.2 4.8 0.00 0.00 0.00 79 998.9
20260505203005 11 51 3.2 4.8 0.00 0.00 0.00 79 999.0
20260505202805 11 56 3.2 4.8 0.00 0.00 0.00 79 998.9
20260505202605 11 70 3.2 6.4 0.00 0.00 0.00 78 998.9
20260505202405 11 77 3.2 6.4 0.00 0.00 0.00 78 998.8
20260505201805 11 81 4.8 6.4 0.00 0.00 0.00 77 998.8
20260505201405 12 82 3.2 4.8 0.00 0.00 0.00 75 998.8
20260505201005 12 88 3.2 4.8 0.00 0.00 0.00 74 998.7
20260505200605 12 45 4.8 6.4 0.00 0.00 0.00 73 998.9
20260505200405 12 65 4.8 6.4 0.00 0.00 0.00 72 998.8
20260505200205 12 355 4.8 6.4 0.00 0.00 0.00 70 998.7
20260505200005 12 350 6.4 12.9 0.00 0.00 0.00 70 998.7
20260505195805 12 343 6.4 12.9 0.00 0.00 0.00 69 998.8
20260505195605 12 183 6.4 12.9 0.00 0.00 0.00 69 998.7
20260505195405 12 310 6.4 12.9 0.00 0.00 0.00 68 998.7
20260505195205 12 83 6.4 12.9 0.00 0.00 0.00 68 998.7
20260505194605 12 69 6.4 8.0 0.00 0.00 0.00 67 998.4
20260505194405 12 53 6.4 8.0 0.00 0.00 0.00 67 998.5
20260505194205 12 35 6.4 8.0 0.00 0.00 0.00 67 998.5
20260505194005 12 31 4.8 8.0 0.00 0.00 0.00 66 998.4
20260505193805 12 35 4.8 8.0 0.00 0.00 0.00 65 998.4
20260505193605 13 38 3.2 8.0 0.00 0.00 0.00 65 998.5
20260505193205 13 73 1.6 4.8 0.00 0.00 0.00 65 998.4
20260505192805 13 74 0.0 3.2 0.00 0.00 0.00 64 998.4
20260505192605 13 316 1.6 3.2 0.00 0.00 0.00 64 998.3
20260505192405 13 331 1.6 3.2 0.00 0.00 0.00 64 998.2
20260505192205 13 331 1.6 3.2 0.00 0.00 0.00 64 998.1
20260505192005 13 313 1.6 3.2 0.00 0.00 0.00 64 998.3
20260505191804 13 342 1.6 4.8 0.00 0.00 0.00 64 998.0
20260505191605 13 17 1.6 4.8 0.00 0.00 0.00 64 998.0
20260505191405 13 25 1.6 4.8 0.00 0.00 0.00 63 998.1
20260505191205 13 25 1.6 4.8 0.00 0.00 0.00 63 998.0
20260505190805 13 81 1.6 3.2 0.00 0.00 0.00 63 998.1
20260505190605 13 74 1.6 3.2 0.00 0.00 0.00 63 998.0
20260505190205 13 69 1.6 3.2 0.00 0.00 0.00 63 997.9
20260505190005 13 84 1.6 3.2 0.00 0.00 0.00 63 998.0
20260505185805 13 77 0.0 3.2 0.00 0.00 0.00 63 997.9
20260505185405 13 97 0.0 3.2 0.00 0.00 0.00 63 997.9
20260505185005 13 55 0.0 3.2 0.00 0.00 0.00 63 997.8
20260505184805 13 48 0.0 3.2 0.00 0.00 0.00 63 997.9
20260505184605 13 48 0.0 3.2 0.00 0.00 0.00 63 997.9
20260505184205 13 338 0.0 3.2 0.00 0.00 0.00 63 997.7
20260505183805 13 314 0.0 3.2 0.00 0.00 0.00 62 997.7
20260505183605 13 314 0.0 3.2 0.00 0.00 0.00 62 997.8
20260505183405 13 314 0.0 3.2 0.00 0.00 0.00 62 997.7
20260505183205 13 135 0.0 1.6 0.00 0.00 0.00 62 997.8
20260505183005 13 0 0.0 0.0 0.00 0.00 0.00 62 997.7
20260505182805 13 0 0.0 0.0 0.00 0.00 0.00 61 997.7
20260505182605 13 0 0.0 0.0 0.00 0.00 0.00 61 997.7
20260505182405 13 0 0.0 0.0 0.00 0.00 0.00 61 997.9
20260505182004 13 0 0.0 0.0 0.00 0.00 0.00 61 997.7
20260505181805 13 28 0.0 1.6 0.00 0.00 0.00 61 997.7
20260505181404 13 40 0.0 1.6 0.00 0.00 0.00 60 997.7
20260505181005 13 40 0.0 1.6 0.00 0.00 0.00 60 997.5
20260505180805 13 56 0.0 1.6 0.00 0.00 0.00 60 997.8
20260505180605 13 78 0.0 1.6 0.00 0.00 0.00 60 997.7
20260505180404 13 0 0.0 0.0 0.00 0.00 0.00 60 997.6
20260505180205 13 0 0.0 0.0 0.00 0.00 0.00 60 997.6
20260505180005 13 0 0.0 0.0 0.00 0.00 0.00 60 997.7
20260505175805 13 0 0.0 0.0 0.00 0.00 0.00 60 997.7
20260505175405 13 31 0.0 3.2 0.00 0.00 0.00 60 997.6
20260505175205 13 35 0.0 3.2 0.00 0.00 0.00 60 997.7
20260505175005 13 35 0.0 3.2 0.00 0.00 0.00 60 997.7
20260505174804 14 1 0.0 3.2 0.00 0.00 0.00 59 997.6
20260505174605 14 9 1.6 3.2 0.00 0.00 0.00 59 997.6
20260505174005 14 341 1.6 3.2 0.00 0.00 0.00 58 997.6
20260505173605 14 334 0.0 3.2 0.00 0.00 0.00 58 997.6
20260505173405 14 311 0.0 3.2 0.00 0.00 0.00 58 997.6
20260505173204 14 181 0.0 1.6 0.00 0.00 0.00 58 997.6
20260505173005 14 0 0.0 0.0 0.00 0.00 0.00 58 997.7
20260505172805 14 157 0.0 1.6 0.00 0.00 0.00 58 997.5
20260505172605 14 157 0.0 1.6 0.00 0.00 0.00 58 997.4
20260505172405 14 157 0.0 1.6 0.00 0.00 0.00 58 997.7
20260505172005 14 10 1.6 4.8 0.00 0.00 0.00 57 997.5
20260505171805 14 18 1.6 4.8 0.00 0.00 0.00 57 997.6
20260505171604 15 27 1.6 4.8 0.00 0.00 0.00 56 997.7
20260505171405 15 27 1.6 4.8 0.00 0.00 0.00 56 997.7
20260505171205 15 35 1.6 4.8 0.00 0.00 0.00 56 997.7
20260505171005 15 61 1.6 4.8 0.00 0.00 0.00 56 997.7
20260505170804 15 143 1.6 3.2 0.00 0.00 0.00 56 997.7
20260505170605 15 183 1.6 3.2 0.00 0.00 0.00 57 997.7
20260505170405 15 183 1.6 3.2 0.00 0.00 0.00 57 997.8
20260505170205 15 189 1.6 3.2 0.00 0.00 0.00 56 997.8
20260505170005 15 193 1.6 3.2 0.00 0.00 0.00 55 997.8
20260505165805 15 170 1.6 3.2 0.00 0.00 0.00 55 997.8
20260505165405 15 59 1.6 3.2 0.00 0.00 0.00 55 997.8
20260505165205 15 82 1.6 3.2 0.00 0.00 0.00 55 997.7
20260505165005 15 11 1.6 3.2 0.00 0.00 0.00 55 997.7
20260505164804 15 5 1.6 3.2 0.00 0.00 0.00 54 997.7
20260505164405 16 185 1.6 3.2 0.00 0.00 0.00 54 997.7
20260505164205 16 184 1.6 3.2 0.00 0.00 0.00 54 997.7
20260505164005 16 184 1.6 3.2 0.00 0.00 0.00 53 997.8
20260505163605 16 186 1.6 3.2 0.00 0.00 0.00 54 997.7
20260505163205 16 141 0.0 1.6 0.00 0.00 0.00 54 997.7
20260505163005 16 175 1.6 6.4 0.00 0.00 0.00 54 997.7
20260505162605 16 181 1.6 6.4 0.00 0.00 0.00 54 997.7
20260505162405 16 178 1.6 6.4 0.00 0.00 0.00 54 997.7
20260505162205 16 177 1.6 6.4 0.00 0.00 0.00 53 997.8
20260505161605 16 177 1.6 3.2 0.00 0.00 0.00 53 997.8
20260505161404 16 181 1.6 3.2 0.00 0.00 0.00 53 997.6
20260505161005 16 192 1.6 6.4 0.00 0.00 0.00 54 997.6
20260505160805 16 223 1.6 6.4 0.00 0.00 0.00 54 997.7
20260505160405 16 189 3.2 6.4 0.00 0.00 0.00 53 997.7
20260505160205 16 203 1.6 6.4 0.00 0.00 0.00 53 997.7
20260505153205 17 296 1.6 3.2 0.00 0.00 0.00 48 997.7
20260505153005 17 303 1.6 3.2 0.00 0.00 0.00 47 997.7
20260505152805 17 318 3.2 9.7 0.00 0.00 0.00 46 997.7
20260505152604 17 323 4.8 9.7 0.00 0.00 0.00 48 997.6
20260505152405 17 331 4.8 9.7 0.00 0.00 0.00 47 997.6
20260505152204 17 343 6.4 9.7 0.00 0.00 0.00 42 997.5
20260505152005 17 356 6.4 9.7 0.00 0.00 0.00 41 997.6
20260505151805 17 25 6.4 9.7 0.00 0.00 0.00 41 997.6
20260505151604 17 103 4.8 6.4 0.00 0.00 0.00 42 997.8
20260505151405 17 117 4.8 6.4 0.00 0.00 0.00 42 997.7
20260505151205 17 128 3.2 6.4 0.00 0.00 0.00 42 997.7
20260505151004 17 140 3.2 6.4 0.00 0.00 0.00 42 997.7
20260505150804 17 131 3.2 4.8 0.00 0.00 0.00 43 997.7
20260505150605 17 117 3.2 4.8 0.00 0.00 0.00 42 997.7
20260505150405 17 132 3.2 4.8 0.00 0.00 0.00 42 997.7
20260505150205 17 108 4.8 6.4 0.00 0.00 0.00 42 997.6
20260505140605 17 336 6.4 8.0 0.00 0.00 0.00 41 998.0
20260505140404 18 345 4.8 8.0 0.00 0.00 0.00 42 997.8
20260505140204 18 340 3.2 8.0 0.00 0.00 0.00 41 998.0
20260505130205 18 61 4.8 6.4 0.00 0.00 0.00 43 998.4
20260505124804 18 353 4.8 11.3 0.00 0.00 0.00 43 998.4
20260505124605 18 355 4.8 11.3 0.00 0.00 0.00 42 998.3
20260505124405 18 7 4.8 11.3 0.00 0.00 0.00 41 998.3
20260505124205 18 10 4.8 11.3 0.00 0.00 0.00 41 998.4
20260505124004 18 5 4.8 8.0 0.00 0.00 0.00 42 998.3
20260505123804 18 76 3.2 8.0 0.00 0.00 0.00 42 998.4
20260505123605 18 12 3.2 6.4 0.00 0.00 0.00 43 998.3
20260505123404 18 359 3.2 6.4 0.00 0.00 0.00 42 998.4
20260505123205 18 351 3.2 6.4 0.00 0.00 0.00 43 998.4
20260505123005 18 17 1.6 4.8 0.00 0.00 0.00 44 998.4
20260505122804 18 342 3.2 11.3 0.00 0.00 0.00 44 998.4
20260505122604 18 349 4.8 11.3 0.00 0.00 0.00 44 998.4
20260505122405 18 343 6.4 11.3 0.00 0.00 0.00 43 998.4
20260505122205 18 338 6.4 11.3 0.00 0.00 0.00 41 998.3
20260505122004 18 341 6.4 11.3 0.00 0.00 0.00 41 998.4
20260505121804 18 336 4.8 9.7 0.00 0.00 0.00 41 998.3
20260505121605 18 214 4.8 8.0 0.00 0.00 0.00 43 998.4
20260505121205 17 79 4.8 8.0 0.00 0.00 0.00 44 998.2
20260505121004 17 75 4.8 8.0 0.00 0.00 0.00 43 998.4
20260505120804 17 68 4.8 8.0 0.00 0.00 0.00 42 998.3
20260505120605 17 11 4.8 9.7 0.00 0.00 0.00 42 998.5
20260505120204 17 355 6.4 12.9 0.00 0.00 0.00 42 998.4
20260505120005 17 348 8.0 12.9 0.00 0.00 0.00 41 998.3
20260505115805 17 344 9.7 12.9 0.00 0.00 0.00 40 998.4
20260505115604 17 346 8.0 12.9 0.00 0.00 0.00 40 998.4
20260505115404 17 337 8.0 12.9 0.00 0.00 0.00 40 998.3
20260505115204 17 334 8.0 12.9 0.00 0.00 0.00 41 998.3
20260505115005 17 342 6.4 12.9 0.00 0.00 0.00 41 998.5
20260505114805 17 353 6.4 12.9 0.00 0.00 0.00 42 998.4
20260505114604 17 336 6.4 12.9 0.00 0.00 0.00 41 998.5
20260505114404 17 350 6.4 8.0 0.00 0.00 0.00 42 998.5
20260505114205 17 355 4.8 8.0 0.00 0.00 0.00 41 998.5
20260505114005 17 9 4.8 12.9 0.00 0.00 0.00 40 998.5
20260505113804 18 23 4.8 12.9 0.00 0.00 0.00 40 998.5
20260505113604 18 54 4.8 12.9 0.00 0.00 0.00 41 998.5
20260505113205 18 76 4.8 12.9 0.00 0.00 0.00 41 998.5
20260505112804 18 66 3.2 4.8 0.00 0.00 0.00 43 998.6
20260505112604 18 100 4.8 6.4 0.00 0.00 0.00 42 998.6
20260505112405 18 106 4.8 6.4 0.00 0.00 0.00 42 998.6
20260505112205 18 86 4.8 6.4 0.00 0.00 0.00 44 998.5
20260505111804 17 94 6.4 6.4 0.00 0.00 0.00 44 998.8
20260505111604 17 105 6.4 6.4 0.00 0.00 0.00 44 998.7
20260505111405 17 76 6.4 17.7 0.00 0.00 0.00 49 998.7
20260505111205 17 21 9.7 17.7 0.00 0.00 0.00 48 998.7
20260505111004 17 9 9.7 17.7 0.00 0.00 0.00 48 998.8
20260505110604 17 15 9.7 17.7 0.00 0.00 0.00 47 998.7
20260505110405 17 13 8.0 17.7 0.00 0.00 0.00 46 998.8
20260505110205 17 93 6.4 14.5 0.00 0.00 0.00 46 998.8
20260505102205 15 343 9.7 14.5 0.00 0.00 0.00 59 998.8
20260505101804 15 338 8.0 14.5 0.00 0.00 0.00 60 998.9
20260505101604 15 341 8.0 11.3 0.00 0.00 0.00 60 999.0
20260505101405 15 339 9.7 14.5 0.00 0.00 0.00 60 998.9
20260505101204 15 336 9.7 14.5 0.00 0.00 0.00 60 998.9
20260505101004 15 337 11.3 14.5 0.00 0.00 0.00 61 998.9
20260505100605 15 329 12.9 17.7 0.00 0.00 0.00 60 999.0
20260505100404 15 333 12.9 17.7 0.00 0.00 0.00 60 999.1
20260505095804 15 337 11.3 17.7 0.00 0.00 0.00 59 999.0
20260505095605 15 348 9.7 17.7 0.00 0.00 0.00 60 999.1
20260505095405 15 339 8.0 12.9 0.00 0.00 0.00 60 999.0
20260505095004 15 326 9.7 12.9 0.00 0.00 0.00 60 999.0
20260505094804 15 323 8.0 12.9 0.00 0.00 0.00 60 999.0
20260505094405 16 344 9.7 12.9 0.00 0.00 0.00 58 999.0
20260505094004 16 66 8.0 12.9 0.00 0.00 0.00 60 999.1
20260505093805 16 90 8.0 12.9 0.00 0.00 0.00 60 998.9
20260505093404 16 43 6.4 11.3 0.00 0.00 0.00 60 999.1
20260505093004 16 20 4.8 9.7 0.00 0.00 0.00 61 999.0
20260505092805 16 42 4.8 8.0 0.00 0.00 0.00 61 999.1
20260505092605 16 48 4.8 8.0 0.00 0.00 0.00 61 998.9
20260505092404 16 42 4.8 6.4 0.00 0.00 0.00 61 999.2
20260505092204 16 60 4.8 6.4 0.00 0.00 0.00 61 999.0
20260505092005 16 60 6.4 6.4 0.00 0.00 0.00 61 999.1
20260505091804 16 47 6.4 9.7 0.00 0.00 0.00 62 999.1
20260505091604 16 69 6.4 9.7 0.00 0.00 0.00 63 999.0
20260505091405 16 50 6.4 9.7 0.00 0.00 0.00 62 999.0
20260505091204 16 31 6.4 9.7 0.00 0.00 0.00 62 998.9
20260505091004 15 20 6.4 12.9 0.00 0.00 0.00 62 999.1
20260505090804 15 41 6.4 12.9 0.00 0.00 0.00 62 999.0
20260505090205 15 7 6.4 12.9 0.00 0.00 0.00 62 999.1
20260505090005 15 22 4.8 8.0 0.00 0.00 0.00 63 998.9
20260505085805 15 14 4.8 8.0 0.00 0.00 0.00 64 999.0
20260505085605 15 351 4.8 8.0 0.00 0.00 0.00 64 999.0
20260505085404 15 302 4.8 6.4 0.00 0.00 0.00 64 999.0
20260505085204 15 264 4.8 8.0 0.00 0.00 0.00 63 999.0
20260505085005 15 320 6.4 11.3 0.00 0.00 0.00 63 999.1
20260505084805 15 331 6.4 11.3 0.00 0.00 0.00 63 999.1
20260505084605 15 356 6.4 11.3 0.00 0.00 0.00 63 999.2
20260505084404 15 12 8.0 11.3 0.00 0.00 0.00 63 999.1
20260505084204 15 23 6.4 11.3 0.00 0.00 0.00 63 999.1
20260505084005 15 32 6.4 9.7 0.00 0.00 0.00 63 999.2
20260505083805 15 47 6.4 9.7 0.00 0.00 0.00 64 999.0
20260505083404 15 151 4.8 6.4 0.00 0.00 0.00 68 999.0
20260505083204 15 202 4.8 6.4 0.00 0.00 0.00 69 999.1
20260505083005 14 214 4.8 6.4 0.00 0.00 0.00 70 999.0
20260505082804 14 270 4.8 6.4 0.00 0.00 0.00 69 999.1
20260505082604 13 274 6.4 11.3 0.00 0.00 0.00 68 998.9
20260505082405 13 315 6.4 11.3 0.00 0.00 0.00 68 998.9
20260505082204 13 338 6.4 11.3 0.00 0.00 0.00 67 998.9
20260505082004 13 341 8.0 11.3 0.00 0.00 0.00 67 999.0
20260505081804 13 341 8.0 11.3 0.00 0.00 0.00 67 999.1
20260505081604 13 349 6.4 11.3 0.00 0.00 0.00 68 998.9
20260505081404 13 336 8.0 11.3 0.00 0.00 0.00 69 999.1
20260505081204 13 358 8.0 11.3 0.00 0.00 0.00 69 999.0
20260505081005 13 352 8.0 14.5 0.00 0.00 0.00 69 998.9
20260505080804 13 347 9.7 14.5 0.00 0.00 0.00 70 999.2
20260505080604 13 336 9.7 14.5 0.00 0.00 0.00 70 999.0
20260505080404 13 350 8.0 14.5 0.00 0.00 0.00 70 999.0
20260505080204 13 351 8.0 14.5 0.00 0.00 0.00 70 999.0
20260505080005 13 340 8.0 12.9 0.00 0.00 0.00 70 998.9
20260505075804 12 339 8.0 12.9 0.00 0.00 0.00 70 999.1
20260505075604 12 345 6.4 12.9 0.00 0.00 0.00 71 999.1
20260505075405 12 345 6.4 12.9 0.00 0.00 0.00 71 999.0
20260505075205 12 347 6.4 12.9 0.00 0.00 0.00 71 999.1
20260505075004 12 10 4.8 6.4 0.00 0.00 0.00 72 999.1
20260505074804 12 357 6.4 9.7 0.00 0.00 0.00 71 999.2
20260505074604 12 2 6.4 9.7 0.00 0.00 0.00 71 999.0
20260505074404 12 346 6.4 9.7 0.00 0.00 0.00 71 999.0
20260505074205 12 335 6.4 9.7 0.00 0.00 0.00 72 999.1
20260505074004 12 325 6.4 9.7 0.00 0.00 0.00 72 999.0
20260505073804 12 314 4.8 8.0 0.00 0.00 0.00 72 999.0
20260505073604 12 307 4.8 8.0 0.00 0.00 0.00 72 999.2
20260505073205 12 328 6.4 12.9 0.00 0.00 0.00 72 999.0
20260505073004 12 324 8.0 12.9 0.00 0.00 0.00 75 999.1
20260505072804 12 321 9.7 12.9 0.00 0.00 0.00 74 999.1
20260505072604 12 321 9.7 12.9 0.00 0.00 0.00 74 999.0
20260505072405 12 328 9.7 12.9 0.00 0.00 0.00 74 999.0
20260505072204 12 325 8.0 11.3 0.00 0.00 0.00 74 999.0
20260505072004 12 332 8.0 11.3 0.00 0.00 0.00 74 999.1
20260505071805 12 338 8.0 8.0 0.00 0.00 0.00 72 999.0
20260505071605 12 336 8.0 12.9 0.00 0.00 0.00 72 999.1
20260505071204 12 355 6.4 12.9 0.00 0.00 0.00 72 999.2
20260505071005 12 348 6.4 12.9 0.00 0.00 0.00 76 999.0
20260505070804 12 2 6.4 12.9 0.00 0.00 0.00 77 999.1
20260505070604 12 23 6.4 14.5 0.00 0.00 0.00 77 999.2
20260505070404 12 18 6.4 14.5 0.00 0.00 0.00 78 999.1
20260505070205 12 4 6.4 14.5 0.00 0.00 0.00 78 999.1
20260505070005 12 16 4.8 14.5 0.00 0.00 0.00 78 999.2
20260505065804 12 14 4.8 14.5 0.00 0.00 0.00 79 999.1
20260505065604 12 347 3.2 6.4 0.00 0.00 0.00 80 999.1
20260505065405 11 312 3.2 6.4 0.00 0.00 0.00 80 999.0
20260505065204 11 283 3.2 6.4 0.00 0.00 0.00 80 999.3
20260505065004 11 309 4.8 9.7 0.00 0.00 0.00 80 999.2
20260505064604 11 342 6.4 9.7 0.00 0.00 0.00 80 999.1
20260505064405 11 351 6.4 9.7 0.00 0.00 0.00 80 999.4
20260505064004 11 359 6.4 9.7 0.00 0.00 0.00 81 999.3
20260505063804 11 5 4.8 6.4 0.00 0.00 0.00 81 999.2
20260505063605 11 7 6.4 8.0 0.00 0.00 0.00 81 999.1
20260505063404 11 353 6.4 8.0 0.00 0.00 0.00 82 999.3
20260505063204 11 354 4.8 8.0 0.00 0.00 0.00 82 999.3
20260505062805 11 348 4.8 8.0 0.00 0.00 0.00 83 999.2
20260505062404 11 337 1.6 6.4 0.00 0.00 0.00 84 999.3
20260505062004 11 323 1.6 3.2 0.00 0.00 0.00 84 999.2
20260505061805 11 331 1.6 3.2 0.00 0.00 0.00 84 999.2
20260505061604 11 342 1.6 4.8 0.00 0.00 0.00 84 999.2
20260505061404 11 351 1.6 4.8 0.00 0.00 0.00 84 999.2
20260505061204 11 350 1.6 4.8 0.00 0.00 0.00 84 999.2
20260505061005 11 349 1.6 4.8 0.00 0.00 0.00 84 999.2
20260505060804 11 350 1.6 4.8 0.00 0.00 0.00 85 999.2
20260505060604 11 43 1.6 4.8 0.00 0.00 0.00 85 999.2
20260505060005 11 85 1.6 3.2 0.00 0.00 0.00 85 999.3
20260505055804 11 95 1.6 3.2 0.00 0.00 0.00 85 999.3
20260505055604 11 99 1.6 3.2 0.00 0.00 0.00 85 999.4
20260505055404 11 80 0.0 3.2 0.00 0.00 0.00 85 999.3
20260505055205 11 0 0.0 0.0 0.00 0.00 0.00 85 999.3
20260505055004 10 0 0.0 0.0 0.00 0.00 0.00 85 999.4
20260505054804 10 1 0.0 3.2 0.00 0.00 0.00 85 999.2
20260505054604 10 345 1.6 3.2 0.00 0.00 0.00 85 999.3
20260505054404 10 340 1.6 4.8 0.00 0.00 0.00 85 999.5
20260505054205 10 350 1.6 4.8 0.00 0.00 0.00 85 999.4
20260505054004 10 350 1.6 4.8 0.00 0.00 0.00 85 999.4
20260505053804 10 348 1.6 4.8 0.00 0.00 0.00 85 999.4
20260505053604 10 355 1.6 4.8 0.00 0.00 0.00 85 999.5
20260505053405 10 90 0.0 3.2 0.00 0.00 0.00 85 999.5
20260505053204 10 0 0.0 0.0 0.00 0.00 0.00 85 999.4
20260505053004 10 0 0.0 0.0 0.00 0.00 0.00 85 999.4
20260505052804 10 0 0.0 0.0 0.00 0.00 0.00 85 999.4
20260505052605 10 323 0.0 1.6 0.00 0.00 0.00 85 999.4
20260505052404 10 321 0.0 1.6 0.00 0.00 0.00 85 999.4
20260505052204 10 321 0.0 1.6 0.00 0.00 0.00 85 999.4
20260505051805 10 321 0.0 1.6 0.00 0.00 0.00 85 999.4
20260505051604 10 314 0.0 1.6 0.00 0.00 0.00 85 999.4
20260505051404 10 0 0.0 0.0 0.00 0.00 0.00 85 999.4
20260505051204 10 0 0.0 0.0 0.00 0.00 0.00 85 999.5
20260505050805 10 337 0.0 3.2 0.00 0.00 0.00 85 999.3
20260505050604 10 337 0.0 3.2 0.00 0.00 0.00 85 999.5
20260505050404 10 337 0.0 3.2 0.00 0.00 0.00 84 999.4
20260505041604 10 0 0.0 0.0 0.00 0.00 0.00 84 999.3
20260505041404 10 0 0.0 0.0 0.00 0.00 0.00 84 999.3
20260505041204 10 0 0.0 0.0 0.00 0.00 0.00 84 999.5
20260505041004 10 0 0.0 0.0 0.00 0.00 0.00 84 999.3
20260505040805 10 0 0.0 0.0 0.00 0.00 0.00 84 999.4
20260505040604 10 0 0.0 0.0 0.00 0.00 0.00 84 999.3
20260505040404 10 0 0.0 0.0 0.00 0.00 0.00 84 999.4
20260505035805 10 0 0.0 0.0 0.00 0.00 0.00 84 999.5
20260505035604 10 0 0.0 0.0 0.00 0.00 0.00 84 999.5
20260505035404 10 0 0.0 0.0 0.00 0.00 0.00 84 999.3
20260505035204 10 0 0.0 0.0 0.00 0.00 0.00 84 999.5
20260505034805 10 0 0.0 0.0 0.00 0.00 0.00 84 999.4
20260505034404 10 0 0.0 0.0 0.00 0.00 0.00 84 999.6
20260505034204 10 0 0.0 0.0 0.00 0.00 0.00 84 999.5
20260505034004 10 0 0.0 0.0 0.00 0.00 0.00 84 999.4
20260505033805 10 0 0.0 0.0 0.00 0.00 0.00 84 999.5
20260505033604 10 0 0.0 0.0 0.00 0.00 0.00 84 999.6
20260505033404 10 0 0.0 0.0 0.00 0.00 0.00 84 999.5
20260505033204 10 0 0.0 0.0 0.00 0.00 0.00 84 999.5
20260505033004 10 0 0.0 0.0 0.00 0.00 0.00 84 999.7
20260505032604 10 0 0.0 0.0 0.00 0.00 0.00 84 999.6
20260505032404 10 0 0.0 0.0 0.00 0.00 0.00 84 999.7
20260505032204 10 0 0.0 0.0 0.00 0.00 0.00 84 999.6
20260505031604 10 0 0.0 0.0 0.00 0.00 0.00 84 999.6
20260505031404 10 0 0.0 0.0 0.00 0.00 0.00 84 999.6
20260505031204 10 0 0.0 0.0 0.00 0.00 0.00 84 999.6
20260505031005 10 0 0.0 0.0 0.00 0.00 0.00 84 999.6
20260505030804 10 0 0.0 0.0 0.00 0.00 0.00 84 999.7
20260505030604 10 0 0.0 0.0 0.00 0.00 0.00 84 999.7
20260505030204 10 0 0.0 0.0 0.00 0.00 0.00 84 999.7
20260505030004 10 0 0.0 0.0 0.00 0.00 0.00 84 999.8
20260505025804 10 0 0.0 0.0 0.00 0.00 0.00 84 999.7
20260505025404 10 0 0.0 0.0 0.00 0.00 0.00 84 999.7
20260505025005 10 0 0.0 0.0 0.00 0.00 0.00 84 999.7
20260505024804 10 0 0.0 0.0 0.00 0.00 0.00 84 999.7
20260505024604 10 0 0.0 0.0 0.00 0.00 0.00 84 999.6
20260505024204 10 0 0.0 0.0 0.00 0.00 0.00 84 999.5
20260505024004 10 0 0.0 0.0 0.00 0.00 0.00 84 999.6
20260505023805 10 18 0.0 3.2 0.00 0.00 0.00 84 999.7
20260505023604 10 18 0.0 3.2 0.00 0.00 0.00 84 999.5
20260505023005 10 306 1.6 3.2 0.00 0.00 0.00 84 999.7
20260505022804 10 248 0.0 3.2 0.00 0.00 0.00 84 999.6
20260505022604 10 279 1.6 3.2 0.00 0.00 0.00 84 999.7
20260505022404 10 289 1.6 3.2 0.00 0.00 0.00 84 999.6
20260505022004 10 288 1.6 3.2 0.00 0.00 0.00 84 999.6
20260505021804 10 287 1.6 3.2 0.00 0.00 0.00 84 999.5
20260505021404 10 306 1.6 3.2 0.00 0.00 0.00 84 999.6
20260505021204 10 309 1.6 3.2 0.00 0.00 0.00 84 999.7
20260505020604 10 90 1.6 3.2 0.00 0.00 0.00 83 999.9
20260505020404 10 93 0.0 3.2 0.00 0.00 0.00 83 999.8
20260505020004 10 135 0.0 3.2 0.00 0.00 0.00 83 999.9
20260505015804 10 0 0.0 0.0 0.00 0.00 0.00 83 1000.0
20260505015204 10 0 0.0 0.0 0.00 0.00 0.00 83 1000.0
20260505015004 10 0 0.0 0.0 0.00 0.00 0.00 83 999.9
20260505014605 10 0 0.0 0.0 0.00 0.00 0.00 83 1000.1
20260505014404 10 0 0.0 0.0 0.00 0.00 0.00 83 1000.1